[[{"header":{"parameterUnit":"m.s-1","parameterCategory":1,"la1":30.2991,"la2":30.254,"lo1":-89.0895,"lo2":-89.0444,"dy":0.0017,"dx":0.0017,"nx":28,"ny":28,"refTime":"2024-10-13T03:00:00:Z","depth":0,"parameterNumber":2,"parameterNumberName":"U-component_of_WINDS"},"data":[0,0,0,0,0,0,0,0,0,0,0,0,0,0,0,0,0,0,0,0,0,0,0,0,0,0,0,0,0,0,0,0,0,0,0,0,0,0,0,0,0,0,0,0,0,0,0,0,0,0,0,0,0,0,0,0,0,0,0.9229,0.9229,0,0.9291,0.9292,0.9293,0.9305,0.9305,0.9305,0.9304,0.9365,0.9367,0.9369,0,0,0,0,0,0,0,0,0,0,0,0,0,0.9115,0.9117,0.9228,0.9229,0.923,0.9291,0.9292,0.9293,0.9306,0.9305,0.9304,0.9304,0.9364,0.9367,0.9369,0,0,0,0,0,0,0,0,0,0,0,0,0,0.9169,0.9118,0.9228,0.9244,0.9246,0.9291,0.9292,0.9293,0.9306,0.9305,0.9304,0.9304,0.9364,0.9367,0.937,0.9403,0,0,0.9379,0.9381,0,0,0,0,0,0,0,0,0.9166,0.9174,0.9241,0.9243,0.9245,0.929,0.9274,0.933,0.9306,0.9283,0.9304,0.9303,0.934,0.9345,0.9359,0.9406,0.9408,0.9379,0.9381,0.9383,0.9384,0,0,0,0,0,0,0,0.9163,0.9171,0.9253,0.9242,0.9244,0.9246,0.9253,0.9285,0.9315,0.9285,0.9286,0.9293,0.9342,0.9356,0.936,0.9409,0.9379,0.9382,0.9384,0.9385,0.9484,0.9485,0,0,0,0,0,0,0.9157,0.9168,0.9251,0.9255,0.9203,0.9249,0.9257,0.9276,0.9314,0.932,0.9294,0.9294,0.9351,0.9357,0.9362,0.9402,0.9383,0.9386,0.9387,0.9483,0.9484,0.9485,0,0,0,0,0,0,0.9154,0.9164,0.9249,0.9212,0.9223,0.9251,0.9273,0.9278,0.9292,0.9321,0.9326,0.9303,0.935,0.9358,0.9392,0.9405,0.9387,0.939,0.9482,0.9484,0.9485,0.9483,0,0,0,0,0,0,0.9151,0.9163,0.9177,0.9212,0.9225,0.9279,0.9274,0.928,0.9298,0.9298,0.9331,0.9336,0.935,0.9388,0.9395,0.9408,0.9392,0.9481,0.9483,0.9484,0.9482,0.9484,0.9486,0,0,0,0,0,0.9147,0.9174,0.9178,0.9188,0.9243,0.928,0.9287,0.9304,0.9299,0.9312,0.9331,0.9335,0.9402,0.9391,0.94,0.9414,0.9481,0.9482,0.9484,0.9481,0.9484,0.9485,0,0,0,0,0,0,0.9139,0.9179,0.9184,0.9223,0.9248,0.9282,0.93,0.9306,0.9332,0.9331,0.935,0.9357,0.939,0.9405,0.9393,0.9447,0.9441,0.9444,0.9436,0.9438,0.944,0.9435,0.9395,0,0,0,0,0,0.9142,0.917,0.9203,0.9235,0.9247,0.9271,0.9288,0.9298,0.9324,0.9335,0.9356,0.938,0.9406,0.9423,0.9449,0.9484,0.9491,0.9498,0.95,0.9501,0.9504,0.9521,0.9525,0.9491,0.9491,0.9491,0,0,0.9149,0.9174,0.919,0.9234,0.9254,0.9281,0.928,0.9309,0.9328,0.9339,0.9373,0.9389,0.9416,0.9451,0.9467,0.9465,0.9514,0.9503,0.9504,0.9506,0.9523,0.9527,0.9529,0.9492,0.9492,0.9491,0,0,0.9174,0.9197,0.9225,0.9245,0.9276,0.9292,0.9298,0.9331,0.9342,0.9377,0.9385,0.9407,0.9452,0.9471,0.9487,0.9517,0.9521,0.9525,0.9533,0.955,0.9553,0.9556,0.9565,0.9568,0.9527,0.9527,0.9527,0,0.9178,0.922,0.9238,0.9266,0.9284,0.9295,0.9323,0.9341,0.9379,0.939,0.9387,0.9443,0.9463,0.9501,0.9508,0.9521,0.9527,0.9521,0.9552,0.9554,0.9557,0.9565,0.9569,0.9527,0.9527,0.9527,0.9527,0,0.9222,0.9251,0.9269,0.9306,0.9326,0.9353,0.9374,0.9392,0.94,0.9415,0.9448,0.9472,0.9502,0.9512,0.952,0.9551,0.9548,0.9548,0.9542,0.956,0.9568,0.9572,0.9528,0.9528,0.9528,0.9527,0,0,0.9245,0.9291,0.9297,0.9313,0.9347,0.9369,0.9395,0.9425,0.9439,0.9464,0.9486,0.9523,0.9523,0.954,0.9551,0.9566,0.9586,0.9564,0.9565,0.9566,0.9618,0.9617,0.9621,0.9589,0.959,0.959,0.9615,0,0.9274,0.9324,0.934,0.9381,0.9406,0.9416,0.9439,0.9461,0.9476,0.9498,0.9514,0.9539,0.9538,0.9548,0.9564,0.958,0.9596,0.9579,0.9608,0.9609,0.96,0.9626,0.9626,0.9648,0.9619,0.962,0.962,0,0.9314,0.934,0.9383,0.9412,0.9424,0.9444,0.9472,0.9494,0.9518,0.9528,0.9546,0.9555,0.9582,0.9574,0.961,0.9597,0.961,0.9619,0.9621,0.9624,0.9615,0.9628,0.9656,0.9659,0.9626,0.9625,0.9625,0,0.9324,0.937,0.9401,0.9415,0.945,0.9464,0.9479,0.9503,0.952,0.9543,0.9553,0.958,0.9594,0.9613,0.9627,0.9621,0.9661,0.9655,0.9668,0.9667,0.9675,0.9675,0.9705,0.9685,0.9685,0.9685,0.9685,0,0.9354,0.938,0.9407,0.9426,0.9454,0.9471,0.9498,0.9514,0.9535,0.9556,0.9566,0.9585,0.9604,0.9625,0.9636,0.9663,0.9669,0.9676,0.9679,0.9675,0.9674,0.9683,0.9681,0.9686,0.9685,0.9685,0.9685,0,0.9371,0.939,0.9425,0.9455,0.9463,0.9482,0.9507,0.9525,0.954,0.9566,0.9573,0.9595,0.962,0.9637,0.9669,0.9676,0.9705,0.9708,0.9697,0.9698,0.9709,0.9707,0.9745,0.975,0.9728,0.9728,0.9728,0,0.9388,0.9408,0.944,0.9455,0.9471,0.9495,0.9512,0.9529,0.9545,0.9574,0.9588,0.9614,0.9635,0.9674,0.9692,0.9716,0.9719,0.9731,0.9723,0.9717,0.9718,0.9716,0.9717,0.9732,0.9732,0.9732,0.9732,0,0.9416,0.9424,0.9448,0.9475,0.9495,0.9517,0.9538,0.955,0.957,0.9588,0.9614,0.9631,0.9663,0.9688,0.9713,0.9727,0.9732,0.9734,0.9738,0.9734,0.9727,0.973,0.9699,0.9733,0.9733,0.9733,0.9733,0.9733,0.9433,0.945,0.9475,0.9501,0.9519,0.9539,0.9557,0.9573,0.9596,0.9624,0.9632,0.9659,0.9681,0.9716,0.9729,0.9749,0.9748,0.9754,0.9755,0.9756,0.9756,0.9724,0.9754,0.9754,0.9754,0.9754,0.9754,0,0.946,0.9476,0.95,0.953,0.955,0.9554,0.9578,0.9594,0.9617,0.9638,0.9659,0.9688,0.9711,0.9731,0.9755,0.9767,0.977,0.9772,0.9771,0.9774,0.9756,0.975,0.977,0.977,0.977,0.9769,0.9769,0.9769,0.9476,0.9506,0.9516,0.9554,0.957,0.9597,0.961,0.9627,0.9644,0.9676,0.9696,0.9708,0.9728,0.9753,0.9774,0.9779,0.9787,0.9789,0.9794,0.9777,0.9775,0.9774,0.9768,0.9791,0.9791,0.981,0.981,0.981]},{"header":{"parameterUnit":"m.s-1","parameterCategory":1,"la1":30.2991,"la2":30.254,"lo1":-89.0895,"lo2":-89.0444,"dy":0.0017,"dx":0.0017,"nx":28,"ny":28,"refTime":"2024-10-13T03:00:00:Z","depth":0,"parameterNumber":3,"parameterNumberName":"V-component_of_WINDS"},"data":[0,0,0,0,0,0,0,0,0,0,0,0,0,0,0,0,0,0,0,0,0,0,0,0,0,0,0,0,0,0,0,0,0,0,0,0,0,0,0,0,0,0,0,0,0,0,0,0,0,0,0,0,0,0,0,0,0,0,2.4766,2.4766,0,2.4751,2.4751,2.475,2.4701,2.47,2.4699,2.4698,2.4681,2.4682,2.4683,0,0,0,0,0,0,0,0,0,0,0,0,0,2.4749,2.475,2.4766,2.4766,2.4765,2.4751,2.4751,2.475,2.4701,2.47,2.4698,2.4697,2.4681,2.4682,2.4683,0,0,0,0,0,0,0,0,0,0,0,0,0,2.4748,2.475,2.4766,2.4739,2.4737,2.4751,2.4751,2.475,2.4701,2.47,2.4698,2.4697,2.4681,2.4682,2.4683,2.4721,0,0,2.4685,2.4686,0,0,0,0,0,0,0,0,2.4748,2.4748,2.4743,2.4741,2.4738,2.4726,2.4739,2.4741,2.4702,2.4715,2.4698,2.4696,2.4698,2.4697,2.4698,2.4721,2.472,2.4685,2.4686,2.4686,2.4687,0,0,0,0,0,0,0,2.4748,2.4749,2.476,2.4743,2.474,2.4727,2.4725,2.4739,2.4716,2.4714,2.471,2.4709,2.4696,2.4697,2.4697,2.472,2.4685,2.4686,2.4687,2.4687,2.477,2.4772,0,0,0,0,0,0,2.4752,2.4749,2.476,2.4759,2.4739,2.4729,2.4726,2.4732,2.4715,2.4711,2.471,2.4707,2.4696,2.4696,2.4696,2.4738,2.4686,2.4687,2.4688,2.4769,2.4771,2.4772,0,0,0,0,0,0,2.4752,2.4754,2.4761,2.4753,2.4753,2.4731,2.4737,2.4732,2.4733,2.4713,2.4708,2.4716,2.4695,2.4695,2.4715,2.4737,2.4688,2.4688,2.4767,2.4769,2.4772,2.4824,0,0,0,0,0,0,2.4752,2.4754,2.4769,2.4754,2.4754,2.4781,2.4738,2.4733,2.4735,2.473,2.4717,2.4713,2.4694,2.4714,2.4716,2.4737,2.4689,2.4765,2.4768,2.4771,2.482,2.4828,2.4835,0,0,0,0,0,2.4751,2.4785,2.477,2.4772,2.4772,2.4782,2.4782,2.4759,2.4737,2.4751,2.4738,2.4714,2.4735,2.4716,2.4718,2.474,2.4763,2.4767,2.4771,2.4817,2.4826,2.4834,0,0,0,0,0,0,2.4803,2.4782,2.4766,2.4796,2.4791,2.4774,2.4791,2.477,2.4772,2.4767,2.4738,2.4736,2.4759,2.4752,2.4732,2.4775,2.4745,2.4749,2.4779,2.4788,2.4795,2.4796,2.469,0,0,0,0,0,2.4818,2.4828,2.481,2.4837,2.4836,2.4814,2.4818,2.48,2.4794,2.4792,2.478,2.4775,2.478,2.4784,2.4787,2.4819,2.4814,2.4835,2.4842,2.4848,2.4852,2.4866,2.4874,2.4785,2.4785,2.4785,0,0,2.4849,2.4839,2.4847,2.4848,2.4842,2.4852,2.4813,2.4826,2.4833,2.4794,2.4811,2.4802,2.4794,2.482,2.483,2.4814,2.4876,2.4853,2.4858,2.4858,2.487,2.4879,2.4886,2.4787,2.4787,2.4787,0,0,2.491,2.4904,2.4926,2.4921,2.4912,2.4897,2.4903,2.4888,2.4881,2.4898,2.4868,2.4876,2.4886,2.488,2.4879,2.4936,2.4913,2.4938,2.4976,2.4989,2.4996,2.5002,2.502,2.5028,2.4942,2.4942,2.4943,0,2.4949,2.4964,2.4939,2.4953,2.4953,2.4919,2.4939,2.4936,2.4929,2.493,2.4912,2.4922,2.4915,2.4937,2.4951,2.4952,2.4955,2.4939,2.4997,2.5003,2.5008,2.5025,2.5032,2.4945,2.4945,2.4945,2.4944,0,2.5011,2.5022,2.504,2.5034,2.5036,2.5054,2.5031,2.5036,2.5018,2.5005,2.5021,2.5011,2.5011,2.5015,2.4998,2.5034,2.5024,2.5003,2.4971,2.502,2.5035,2.5042,2.495,2.4949,2.4948,2.4947,0,0,2.5104,2.5084,2.509,2.5086,2.5074,2.5081,2.5096,2.5096,2.51,2.5097,2.5107,2.5116,2.5095,2.5093,2.5075,2.5088,2.5131,2.5064,2.5063,2.5075,2.5167,2.5182,2.519,2.5116,2.5117,2.5118,2.5167,0,2.516,2.5185,2.5163,2.5191,2.5199,2.5166,2.5179,2.5172,2.5159,2.5164,2.515,2.5155,2.5129,2.5127,2.5138,2.5123,2.5148,2.512,2.5123,2.5124,2.5125,2.5198,2.5215,2.5262,2.5173,2.5174,2.5175,0,2.5229,2.5228,2.5257,2.5241,2.5243,2.5255,2.5252,2.5257,2.5248,2.5238,2.5236,2.5214,2.5226,2.5196,2.5211,2.5192,2.5192,2.5185,2.5186,2.5184,2.5151,2.5196,2.5276,2.5283,2.5184,2.5184,2.5183,0,2.5291,2.5297,2.5315,2.5312,2.5295,2.5303,2.5296,2.5286,2.5286,2.5283,2.5283,2.5282,2.5281,2.528,2.5257,2.5238,2.5275,2.5243,2.5265,2.5265,2.5273,2.5272,2.5352,2.5277,2.5276,2.5276,2.5276,0,2.5355,2.5374,2.5342,2.5353,2.5372,2.5346,2.5365,2.5355,2.5345,2.5352,2.5324,2.5331,2.5302,2.5305,2.5288,2.5301,2.5302,2.5293,2.5287,2.5294,2.5295,2.5293,2.5288,2.5278,2.5278,2.5277,2.5277,0,2.5427,2.5407,2.5424,2.5405,2.5401,2.5416,2.5399,2.5407,2.5393,2.5402,2.5403,2.5379,2.5382,2.536,2.5358,2.5346,2.5367,2.5358,2.537,2.5367,2.5388,2.5386,2.5468,2.5476,2.5398,2.5398,2.5399,0,2.5469,2.5482,2.5464,2.5467,2.5461,2.5466,2.5466,2.5441,2.5442,2.5431,2.544,2.5441,2.5439,2.5444,2.5427,2.5425,2.5413,2.5442,2.5413,2.5418,2.5411,2.541,2.541,2.5448,2.5449,2.545,2.545,0,2.5543,2.5532,2.5533,2.5531,2.5532,2.5529,2.5523,2.5527,2.5499,2.5501,2.5503,2.5502,2.55,2.55,2.5494,2.5485,2.5463,2.546,2.5464,2.547,2.5476,2.5471,2.5385,2.5458,2.5457,2.5456,2.5456,2.5456,2.5599,2.5609,2.5597,2.5599,2.5593,2.5588,2.5594,2.558,2.5581,2.5577,2.5562,2.5566,2.5555,2.5545,2.5538,2.554,2.5526,2.5533,2.5535,2.5536,2.5539,2.5478,2.554,2.5539,2.5539,2.5539,2.5539,0,2.567,2.5661,2.5663,2.5656,2.5657,2.5636,2.5629,2.5631,2.5635,2.5627,2.5626,2.5627,2.5626,2.5608,2.5604,2.5609,2.5599,2.5609,2.5608,2.5605,2.5554,2.5549,2.5618,2.5618,2.5618,2.5618,2.5618,2.5618,2.5707,2.5721,2.5709,2.5718,2.5709,2.5713,2.571,2.5705,2.5698,2.57,2.5699,2.5688,2.5675,2.567,2.5667,2.5662,2.5661,2.5675,2.5666,2.5617,2.5609,2.5602,2.5597,2.5675,2.5675,2.5717,2.5717,2.5718]}]]